EUTELSAT 117 WEST A

Last updated on Thu Nov 21 2024 00:02:42 GMT+0000 (Coordinated Universal Time)

1 39122U 13012A 24324.41440906 -.00000011 00000+0 00000+0 0 9998 2 39122 0.0585 82.7752 0003156 158.0797 210.4727 1.00271388 42672
UTC large
Height (km)
Speed (km/s)
/
Latitude / Longitude
Inclination (degrees)
Orbital Period (minutes)
Azimuth
Elevation
Range (km)
Doppler Factor

Next 0 passes for location: London (51.5072 / 0.1276)

Sorry there are no passes over London.